| time (UTC) | temp F | wind direction | speed knots | gust knots | rain 1hr in | rain 24hr in | rain mn in | humidity % | barometer mb |
| 20260503210014 | 52 | 33 | 7.8 | 14.8 | 0.00 | 0.00 | 0.00 | 40 | 1008.0 |
| 20260503205504 | 53 | 313 | 6.1 | 13.9 | 0.00 | 0.00 | 0.00 | 39 | 1008.0 |
| 20260503205005 | 52 | 9 | 6.1 | 13.9 | 0.00 | 0.00 | 0.00 | 41 | 1008.0 |
| 20260503204518 | 52 | 316 | 1.7 | 13.0 | 0.00 | 0.00 | 0.00 | 43 | 1008.1 |
| 20260503204003 | 52 | 305 | 4.3 | 19.1 | 0.00 | 0.00 | 0.00 | 40 | 1008.0 |
| 20260503203502 | 53 | 317 | 5.2 | 19.1 | 0.00 | 0.00 | 0.00 | 39 | 1008.1 |
| 20260503203012 | 53 | 44 | 12.2 | 18.2 | 0.00 | 0.00 | 0.00 | 41 | 1008.0 |
| 20260503202504 | 52 | 18 | 3.5 | 17.4 | 0.00 | 0.00 | 0.00 | 42 | 1008.0 |
| 20260503202006 | 52 | 338 | 7.0 | 20.9 | 0.00 | 0.00 | 0.00 | 40 | 1008.1 |
| 20260503201508 | 52 | 20 | 9.6 | 20.9 | 0.00 | 0.00 | 0.00 | 42 | 1008.0 |
| 20260503201003 | 52 | 15 | 6.1 | 13.9 | 0.00 | 0.00 | 0.00 | 40 | 1008.1 |
| 20260503200502 | 52 | 344 | 7.0 | 15.6 | 0.00 | 0.00 | 0.00 | 41 | 1008.2 |
| 20260503200008 | 52 | 328 | 4.3 | 15.6 | 0.00 | 0.00 | 0.00 | 39 | 1008.2 |
| 20260503195503 | 53 | 321 | 6.1 | 13.0 | 0.00 | 0.00 | 0.00 | 42 | 1008.2 |
| 20260503195002 | 52 | 9 | 5.2 | 22.6 | 0.00 | 0.00 | 0.00 | 41 | 1008.3 |
| 20260503194512 | 52 | 313 | 10.4 | 22.6 | 0.00 | 0.00 | 0.00 | 40 | 1008.4 |
| 20260503194006 | 51 | 312 | 7.8 | 20.9 | 0.00 | 0.00 | 0.00 | 42 | 1008.4 |
| 20260503193505 | 51 | 340 | 9.6 | 26.9 | 0.00 | 0.00 | 0.00 | 40 | 1008.4 |
| 20260503193010 | 51 | 26 | 9.6 | 26.9 | 0.00 | 0.00 | 0.00 | 40 | 1008.5 |
| 20260503192503 | 51 | 34 | 13.9 | 24.3 | 0.00 | 0.00 | 0.00 | 41 | 1008.6 |
| 20260503192002 | 52 | 315 | 6.1 | 19.1 | 0.00 | 0.00 | 0.00 | 43 | 1008.5 |
| 20260503191512 | 52 | 291 | 7.0 | 13.9 | 0.00 | 0.00 | 0.00 | 41 | 1008.5 |
| 20260503191002 | 52 | 48 | 5.2 | 20.0 | 0.00 | 0.00 | 0.00 | 41 | 1008.5 |
| 20260503190505 | 52 | 324 | 8.7 | 20.0 | 0.00 | 0.00 | 0.00 | 41 | 1008.5 |
| 20260503190017 | 52 | 309 | 7.0 | 19.1 | 0.00 | 0.00 | 0.00 | 43 | 1008.4 |
| 20260503185504 | 52 | 26 | 6.1 | 19.1 | 0.00 | 0.00 | 0.00 | 46 | 1008.4 |
| 20260503185005 | 51 | 297 | 4.3 | 23.5 | 0.00 | 0.00 | 0.00 | 44 | 1008.5 |
| 20260503184513 | 51 | 313 | 6.1 | 23.5 | 0.00 | 0.00 | 0.00 | 42 | 1008.5 |
| 20260503184004 | 51 | 277 | 7.8 | 14.8 | 0.00 | 0.00 | 0.00 | 43 | 1008.5 |
| 20260503183504 | 51 | 300 | 5.2 | 22.6 | 0.00 | 0.00 | 0.00 | 44 | 1008.4 |
| 20260503183012 | 52 | 325 | 8.7 | 22.6 | 0.00 | 0.00 | 0.00 | 42 | 1008.4 |
| 20260503182503 | 52 | 25 | 7.8 | 20.9 | 0.00 | 0.00 | 0.00 | 42 | 1008.4 |
| 20260503182004 | 52 | 346 | 11.3 | 24.3 | 0.00 | 0.00 | 0.00 | 41 | 1008.5 |
| 20260503181517 | 52 | 54 | 13.0 | 24.3 | 0.00 | 0.00 | 0.00 | 41 | 1008.5 |
| 20260503181003 | 52 | 303 | 9.6 | 23.5 | 0.00 | 0.00 | 0.00 | 40 | 1008.3 |
| 20260503180506 | 52 | 16 | 8.7 | 20.9 | 0.00 | 0.00 | 0.00 | 40 | 1008.6 |
| 20260503180024 | 53 | 346 | 7.8 | 20.9 | 0.00 | 0.00 | 0.00 | 38 | 1008.6 |
| 20260503175511 | 54 | 265 | 3.5 | 20.9 | 0.00 | 0.00 | 0.00 | 41 | 1008.5 |
| 20260503175006 | 53 | 338 | 7.8 | 19.1 | 0.00 | 0.00 | 0.00 | 44 | 1008.5 |
| 20260503174516 | 53 | 42 | 12.2 | 19.1 | 0.00 | 0.00 | 0.00 | 41 | 1008.6 |
| 20260503174004 | 51 | 294 | 7.8 | 21.7 | 0.00 | 0.00 | 0.00 | 42 | 1008.5 |
| 20260503173504 | 51 | 20 | 7.8 | 28.7 | 0.00 | 0.00 | 0.00 | 44 | 1008.5 |
| 20260503173004 | 51 | 293 | 9.6 | 28.7 | 0.00 | 0.00 | 0.00 | 44 | 1008.5 |
| 20260503172507 | 52 | 55 | 16.5 | 28.7 | 0.00 | 0.00 | 0.00 | 41 | 1008.5 |
| 20260503172004 | 52 | 24 | 13.0 | 20.9 | 0.00 | 0.00 | 0.00 | 44 | 1008.2 |
| 20260503171510 | 52 | 303 | 9.6 | 19.1 | 0.00 | 0.00 | 0.00 | 43 | 1008.1 |
| 20260503171003 | 52 | 13 | 8.7 | 19.1 | 0.00 | 0.00 | 0.00 | 45 | 1008.1 |
| 20260503170503 | 51 | 9 | 6.1 | 26.1 | 0.00 | 0.00 | 0.00 | 43 | 1008.3 |
| 20260503151008 | 52 | 36 | 11.3 | 20.0 | 0.00 | 0.00 | 0.00 | 48 | 1008.4 |
| 20260503150507 | 51 | 50 | 5.2 | 23.5 | 0.00 | 0.00 | 0.00 | 50 | 1008.5 |
| 20260503131005 | 47 | 350 | 7.0 | 15.6 | 0.00 | 0.08 | 0.00 | 59 | 1009.1 |
| 20260503130507 | 46 | 38 | 6.1 | 15.6 | 0.00 | 0.08 | 0.00 | 61 | 1008.9 |
| 20260503110509 | 39 | 325 | 0.0 | 1.7 | 0.00 | 0.09 | 0.00 | 89 | 1009.0 |
| 20260503090504 | 37 | 51 | 1.7 | 2.6 | 0.00 | 0.11 | 0.00 | 87 | 1009.1 |
| 20260503081526 | 37 | 309 | 0.0 | 2.6 | 0.00 | 0.18 | 0.00 | 87 | 1009.5 |
| 20260503081003 | 37 | 9 | 0.0 | 2.6 | 0.00 | 0.19 | 0.00 | 88 | 1009.6 |
| 20260503080504 | 37 | 178 | 0.9 | 2.6 | 0.00 | 0.20 | 0.00 | 87 | 1009.7 |
| 20260503072507 | 37 | 325 | 0.9 | 2.6 | 0.00 | 0.23 | 0.00 | 86 | 1009.8 |
| 20260503072008 | 38 | 93 | 0.9 | 2.6 | 0.00 | 0.24 | 0.00 | 86 | 1009.9 |
| 20260503071520 | 38 | 332 | 1.7 | 2.6 | 0.00 | 0.24 | 0.00 | 86 | 1010.0 |
| 20260503071007 | 38 | 321 | 0.9 | 2.6 | 0.00 | 0.25 | 0.00 | 86 | 1010.1 |
| 20260503070508 | 38 | 321 | 0.9 | 1.7 | 0.00 | 0.25 | 0.00 | 86 | 1010.2 |
| 20260503055011 | 38 | 301 | 0.0 | 1.7 | 0.00 | 0.34 | 0.00 | 85 | 1010.8 |
| 20260503054535 | 38 | 51 | 0.0 | 2.6 | 0.00 | 0.34 | 0.00 | 85 | 1010.7 |
| 20260503054009 | 38 | 178 | 0.9 | 2.6 | 0.00 | 0.34 | 0.00 | 86 | 1010.8 |
| 20260503053509 | 38 | 243 | 0.9 | 1.7 | 0.00 | 0.34 | 0.00 | 85 | 1010.8 |
| 20260503053016 | 38 | 243 | 0.9 | 1.7 | 0.00 | 0.34 | 0.00 | 86 | 1010.9 |
| 20260503052504 | 38 | 232 | 0.9 | 1.7 | 0.00 | 0.35 | 0.00 | 86 | 1010.9 |
| 20260503052006 | 38 | 250 | 0.9 | 1.7 | 0.00 | 0.35 | 0.00 | 85 | 1011.0 |
| 20260503051515 | 38 | 265 | 0.0 | 2.6 | 0.00 | 0.35 | 0.00 | 85 | 1011.1 |
| 20260503051008 | 38 | 9 | 0.0 | 2.6 | 0.00 | 0.35 | 0.00 | 84 | 1011.0 |
| 20260503050505 | 38 | 316 | 0.9 | 2.6 | 0.00 | 0.36 | 0.00 | 84 | 1011.1 |
| 20260503050027 | 37 | 334 | 0.0 | 0.9 | 0.00 | 0.36 | 0.00 | 84 | 1011.3 |
| 20260503045509 | 38 | 137 | 0.0 | 2.6 | 0.00 | 0.36 | 0.00 | 85 | 1011.4 |
| 20260503045007 | 38 | 221 | 0.9 | 2.6 | 0.00 | 0.36 | 0.00 | 85 | 1011.4 |
| 20260503044522 | 38 | 275 | 0.9 | 2.6 | 0.00 | 0.36 | 0.00 | 86 | 1011.4 |
| 20260503044011 | 38 | 250 | 0.9 | 2.6 | 0.00 | 0.36 | 0.00 | 86 | 1011.5 |
| 20260503043511 | 38 | 238 | 0.9 | 1.7 | 0.00 | 0.36 | 0.00 | 85 | 1011.4 |
| 20260503043026 | 38 | 265 | 0.0 | 2.6 | 0.00 | 0.36 | 0.00 | 83 | 1011.4 |
| 20260503042513 | 38 | 9 | 0.9 | 2.6 | 0.00 | 0.36 | 0.00 | 84 | 1011.5 |
| 20260503042010 | 38 | 282 | 0.9 | 1.7 | 0.00 | 0.36 | 0.00 | 84 | 1011.6 |
| 20260503041526 | 38 | 291 | 0.9 | 1.7 | 0.00 | 0.36 | 0.00 | 84 | 1011.7 |
| 20260503041006 | 38 | 309 | 0.0 | 1.7 | 0.00 | 0.36 | 0.00 | 84 | 1011.7 |
| 20260503040512 | 38 | 325 | 0.9 | 1.7 | 0.00 | 0.36 | 0.00 | 84 | 1011.7 |
| 20260503040027 | 38 | 9 | 0.0 | 1.7 | 0.00 | 0.36 | 0.00 | 85 | 1011.8 |
| 20260503035507 | 39 | 221 | 0.0 | 1.7 | 0.00 | 0.36 | 0.36 | 84 | 1011.8 |
| 20260503035007 | 39 | 126 | 0.0 | 2.6 | 0.00 | 0.36 | 0.36 | 82 | 1011.8 |
| 20260503034520 | 39 | 9 | 0.0 | 3.5 | 0.00 | 0.36 | 0.36 | 78 | 1011.8 |
| 20260503034008 | 40 | 309 | 1.7 | 3.5 | 0.00 | 0.36 | 0.36 | 79 | 1011.7 |
| 20260503033507 | 39 | 9 | 0.9 | 2.6 | 0.00 | 0.36 | 0.36 | 82 | 1011.8 |
| 20260503033024 | 40 | 51 | 0.0 | 2.6 | 0.00 | 0.36 | 0.36 | 80 | 1011.8 |
| 20260503032511 | 41 | 291 | 0.0 | 2.6 | 0.00 | 0.36 | 0.36 | 79 | 1011.8 |
| 20260503032010 | 41 | 309 | 0.9 | 2.6 | 0.00 | 0.36 | 0.36 | 75 | 1011.8 |
| 20260503031528 | 40 | 291 | 1.7 | 2.6 | 0.00 | 0.36 | 0.36 | 76 | 1011.8 |
| 20260503031007 | 40 | 309 | 0.9 | 3.5 | 0.00 | 0.36 | 0.36 | 79 | 1011.8 |
| 20260503030511 | 40 | 338 | 0.9 | 3.5 | 0.00 | 0.36 | 0.36 | 79 | 1011.9 |
| 20260503030033 | 41 | 64 | 2.6 | 3.5 | 0.00 | 0.36 | 0.36 | 80 | 1011.9 |
| 20260503025510 | 41 | 279 | 0.9 | 2.6 | 0.00 | 0.36 | 0.36 | 80 | 1011.9 |
| 20260503025007 | 41 | 250 | 1.7 | 2.6 | 0.00 | 0.36 | 0.36 | 80 | 1011.9 |
| 20260503024520 | 41 | 9 | 0.0 | 2.6 | 0.00 | 0.36 | 0.36 | 79 | 1011.9 |
| 20260503024006 | 42 | 265 | 0.9 | 2.6 | 0.00 | 0.36 | 0.36 | 80 | 1011.9 |
| 20260503023509 | 42 | 221 | 0.9 | 2.6 | 0.00 | 0.36 | 0.36 | 80 | 1011.9 |
| 20260503023023 | 42 | 247 | 1.7 | 3.5 | 0.00 | 0.36 | 0.36 | 79 | 1011.9 |
| 20260503022508 | 42 | 265 | 2.6 | 3.5 | 0.00 | 0.36 | 0.36 | 79 | 1011.9 |
| 20260503022009 | 42 | 265 | 1.7 | 2.6 | 0.00 | 0.36 | 0.36 | 80 | 1012.0 |
| 20260503021524 | 42 | 221 | 0.9 | 1.7 | 0.00 | 0.36 | 0.36 | 78 | 1012.0 |
| 20260503021010 | 42 | 309 | 0.0 | 1.7 | 0.00 | 0.36 | 0.36 | 76 | 1011.9 |
| 20260503020512 | 42 | 34 | 0.0 | 3.5 | 0.00 | 0.36 | 0.36 | 78 | 1012.0 |
| 20260503020029 | 42 | 309 | 0.0 | 3.5 | 0.00 | 0.36 | 0.36 | 79 | 1012.2 |
| 20260503015508 | 43 | 232 | 0.9 | 3.5 | 0.00 | 0.36 | 0.36 | 80 | 1012.1 |
| 20260503015010 | 42 | 265 | 0.0 | 2.6 | 0.00 | 0.36 | 0.36 | 77 | 1012.1 |
| 20260503014531 | 42 | 298 | 0.0 | 2.6 | 0.00 | 0.36 | 0.36 | 78 | 1012.2 |
| 20260503014009 | 42 | 9 | 0.9 | 2.6 | 0.00 | 0.36 | 0.36 | 78 | 1012.1 |
| 20260503013508 | 42 | 9 | 0.0 | 3.5 | 0.00 | 0.36 | 0.36 | 79 | 1012.1 |
| 20260503013029 | 42 | 34 | 0.9 | 3.5 | 0.00 | 0.36 | 0.36 | 78 | 1012.0 |
| 20260503012509 | 42 | 121 | 0.9 | 3.5 | 0.00 | 0.36 | 0.36 | 76 | 1012.0 |
| 20260503012011 | 43 | 212 | 0.9 | 2.6 | 0.00 | 0.36 | 0.36 | 76 | 1012.0 |
| 20260503011532 | 43 | 291 | 0.9 | 2.6 | 0.00 | 0.36 | 0.36 | 72 | 1012.0 |
| 20260503011010 | 43 | 309 | 0.9 | 3.5 | 0.00 | 0.36 | 0.36 | 71 | 1012.0 |
| 20260503010511 | 43 | 247 | 1.7 | 3.5 | 0.00 | 0.36 | 0.36 | 71 | 1011.8 |
| 20260503010033 | 44 | 232 | 1.7 | 3.5 | 0.00 | 0.36 | 0.36 | 71 | 1011.7 |
| 20260503005509 | 44 | 254 | 0.9 | 3.5 | 0.00 | 0.36 | 0.36 | 69 | 1011.6 |
| 20260503005011 | 45 | 217 | 1.7 | 3.5 | 0.00 | 0.36 | 0.36 | 68 | 1011.6 |
| 20260503004526 | 45 | 238 | 1.7 | 4.3 | 0.00 | 0.36 | 0.36 | 66 | 1011.6 |
| 20260503004009 | 45 | 205 | 1.7 | 4.3 | 0.00 | 0.36 | 0.36 | 67 | 1011.5 |
| 20260503003508 | 46 | 196 | 0.9 | 2.6 | 0.00 | 0.36 | 0.36 | 66 | 1011.4 |
| 20260503003028 | 48 | 137 | 0.0 | 4.3 | 0.00 | 0.36 | 0.36 | 57 | 1011.4 |
| 20260503002506 | 48 | 9 | 0.9 | 7.0 | 0.00 | 0.36 | 0.36 | 51 | 1011.3 |
| 20260503002003 | 48 | 22 | 2.6 | 7.0 | 0.00 | 0.36 | 0.36 | 54 | 1011.3 |
| 20260503001505 | 48 | 238 | 0.9 | 2.6 | 0.00 | 0.36 | 0.36 | 51 | 1011.4 |
| 20260503001002 | 49 | 291 | 0.9 | 7.0 | 0.00 | 0.36 | 0.36 | 49 | 1011.2 |
| 20260503000503 | 50 | 282 | 1.7 | 7.0 | 0.00 | 0.36 | 0.36 | 47 | 1011.2 |
| 20260503000010 | 50 | 282 | 1.7 | 7.0 | 0.00 | 0.36 | 0.36 | 48 | 1011.2 |
| 20260502235503 | 50 | 9 | 2.6 | 9.6 | 0.00 | 0.36 | 0.36 | 46 | 1011.1 |
| 20260502235002 | 51 | 301 | 3.5 | 9.6 | 0.00 | 0.36 | 0.36 | 45 | 1011.0 |
| 20260502234529 | 51 | 252 | 1.7 | 7.0 | 0.00 | 0.36 | 0.36 | 44 | 1011.0 |
| 20260502234004 | 52 | 309 | 1.7 | 11.3 | 0.00 | 0.36 | 0.36 | 44 | 1010.8 |
| 20260502233512 | 52 | 250 | 3.5 | 13.0 | 0.00 | 0.36 | 0.36 | 43 | 1010.8 |
| 20260502233016 | 52 | 265 | 6.1 | 13.0 | 0.00 | 0.36 | 0.36 | 43 | 1010.8 |
| 20260502232508 | 52 | 252 | 3.5 | 8.7 | 0.00 | 0.36 | 0.36 | 44 | 1010.7 |
| 20260502232005 | 52 | 273 | 1.7 | 9.6 | 0.00 | 0.36 | 0.36 | 44 | 1010.7 |
| 20260502231522 | 53 | 282 | 2.6 | 10.4 | 0.00 | 0.36 | 0.36 | 43 | 1010.6 |
| 20260502231004 | 53 | 259 | 3.5 | 10.4 | 0.00 | 0.36 | 0.36 | 43 | 1010.6 |
| 20260502230504 | 54 | 265 | 2.6 | 11.3 | 0.00 | 0.36 | 0.36 | 44 | 1010.5 |
| 20260502230003 | 54 | 252 | 4.3 | 11.3 | 0.00 | 0.36 | 0.36 | 44 | 1010.4 |
| 20260502225509 | 54 | 9 | 1.7 | 6.1 | 0.00 | 0.36 | 0.36 | 43 | 1010.4 |
| 20260502225004 | 54 | 221 | 1.7 | 7.0 | 0.00 | 0.36 | 0.36 | 42 | 1010.2 |
| 20260502224506 | 54 | 265 | 0.9 | 11.3 | 0.00 | 0.36 | 0.36 | 42 | 1010.2 |
| 20260502224013 | 54 | 301 | 4.3 | 12.2 | 0.00 | 0.36 | 0.36 | 41 | 1010.1 |
| 20260502223508 | 54 | 229 | 4.3 | 12.2 | 0.00 | 0.36 | 0.36 | 45 | 1010.1 |
| 20260502223012 | 54 | 287 | 2.6 | 8.7 | 0.00 | 0.36 | 0.36 | 39 | 1010.2 |
| 20260502222506 | 54 | 217 | 1.7 | 8.7 | 0.00 | 0.36 | 0.36 | 42 | 1010.2 |
| 20260502222007 | 54 | 265 | 2.6 | 8.7 | 0.00 | 0.36 | 0.36 | 43 | 1010.1 |
| 20260502221520 | 54 | 19 | 3.5 | 8.7 | 0.00 | 0.36 | 0.36 | 45 | 1010.1 |
| 20260502221008 | 54 | 298 | 2.6 | 8.7 | 0.00 | 0.36 | 0.36 | 44 | 1010.0 |
| 20260502220510 | 55 | 334 | 2.6 | 9.6 | 0.00 | 0.36 | 0.36 | 45 | 1010.0 |
| 20260502220028 | 55 | 238 | 5.2 | 9.6 | 0.00 | 0.36 | 0.36 | 49 | 1009.9 |
| 20260502215510 | 55 | 214 | 1.7 | 7.0 | 0.00 | 0.36 | 0.36 | 51 | 1009.9 |
| 20260502215004 | 55 | 282 | 0.9 | 7.0 | 0.00 | 0.36 | 0.36 | 52 | 1009.9 |
| 20260502214508 | 55 | 309 | 1.7 | 7.0 | 0.00 | 0.36 | 0.36 | 49 | 1010.0 |
| 20260502214004 | 55 | 317 | 2.6 | 7.8 | 0.00 | 0.36 | 0.36 | 51 | 1009.9 |
| 20260502213504 | 55 | 9 | 0.9 | 7.8 | 0.00 | 0.36 | 0.36 | 51 | 1009.8 |
| 20260502213024 | 55 | 280 | 3.5 | 7.8 | 0.00 | 0.36 | 0.36 | 48 | 1009.8 |
| 20260502212503 | 55 | 292 | 2.6 | 5.2 | 0.00 | 0.36 | 0.36 | 49 | 1009.7 |
| 20260502212007 | 55 | 9 | 1.7 | 4.3 | 0.00 | 0.36 | 0.36 | 54 | 1009.7 |
| 20260502211517 | 55 | 9 | 0.9 | 6.1 | 0.00 | 0.36 | 0.36 | 57 | 1009.6 |
| 20260502211011 | 56 | 298 | 2.6 | 7.0 | 0.00 | 0.36 | 0.36 | 51 | 1009.6 |
| 20260502210507 | 56 | 236 | 1.7 | 9.6 | 0.00 | 0.36 | 0.36 | 49 | 1009.6 |